Time,TemperatureF,DewpointF,PressureIn,WindDirection,WindDirectionDegrees,WindSpeedMPH,WindSpeedGustMPH,Humidity,HourlyPrecipIn,Conditions,Clouds,dailyrainin,SolarRadiationWatts/m^2,SoftwareType,DateUTC
2013-05-10 00:09:00,46.6,39.8,30.06,South,188,5.0,5.0,77,0.00,,,0.00,0,Wunderground v.1.15,2013-05-10 06:09:00,
2013-05-10 00:14:00,46.5,39.7,30.06,South,174,5.0,7.0,77,0.00,,,0.00,0,Wunderground v.1.15,2013-05-10 06:14:00,
2013-05-10 00:24:00,46.2,39.7,30.06,South,169,5.0,7.0,78,0.00,,,0.00,0,Wunderground v.1.15,2013-05-10 06:24:00,
2013-05-10 00:29:00,46.1,39.6,30.07,South,182,5.0,7.0,78,0.00,,,0.00,0,Wunderground v.1.15,2013-05-10 06:29:00,
2013-05-10 00:35:00,46.0,39.5,30.07,South,182,4.0,7.0,78,0.00,,,0.00,0,Wunderground v.1.15,2013-05-10 06:35:00,
2013-05-10 00:44:00,45.8,39.3,30.06,South,178,4.0,7.0,78,0.00,,,0.00,0,Wunderground v.1.15,2013-05-10 06:44:00,
2013-05-10 00:50:00,45.7,39.2,30.07,SSW,196,4.0,7.0,78,0.00,,,0.00,0,Wunderground v.1.15,2013-05-10 06:50:00,
2013-05-10 00:59:00,45.6,39.1,30.06,South,190,3.0,3.0,78,0.00,,,0.00,0,Wunderground v.1.15,2013-05-10 06:59:00,
2013-05-10 01:05:00,45.5,39.0,30.06,South,188,3.0,7.0,78,0.00,,,0.00,0,Wunderground v.1.15,2013-05-10 07:05:00,
2013-05-10 01:10:00,45.5,39.0,30.06,South,185,3.0,7.0,78,0.00,,,0.00,0,Wunderground v.1.15,2013-05-10 07:10:00,
2013-05-10 01:15:00,45.5,39.0,30.06,South,187,3.0,7.0,78,0.00,,,0.00,0,Wunderground v.1.15,2013-05-10 07:15:00,
2013-05-10 01:20:00,45.4,38.9,30.06,South,187,2.0,7.0,78,0.00,,,0.00,0,Wunderground v.1.15,2013-05-10 07:20:00,
2013-05-10 01:25:00,45.4,38.9,30.06,South,186,2.0,7.0,78,0.00,,,0.00,0,Wunderground v.1.15,2013-05-10 07:25:00,
2013-05-10 01:30:00,45.4,38.9,30.06,South,186,3.0,3.0,78,0.00,,,0.00,0,Wunderground v.1.15,2013-05-10 07:30:00,
2013-05-10 01:40:00,45.3,38.8,30.05,South,186,2.0,7.0,78,0.00,,,0.00,0,Wunderground v.1.15,2013-05-10 07:40:00,
2013-05-10 01:45:00,45.2,38.7,30.05,South,186,1.0,7.0,78,0.00,,,0.00,0,Wunderground v.1.15,2013-05-10 07:45:00,
2013-05-10 01:50:00,45.2,38.7,30.05,South,186,1.0,1.0,78,0.00,,,0.00,0,Wunderground v.1.15,2013-05-10 07:50:00,
2013-05-10 01:55:00,45.2,38.7,30.05,South,186,1.0,7.0,78,0.00,,,0.00,0,Wunderground v.1.15,2013-05-10 07:55:00,
2013-05-10 02:00:00,45.1,38.6,30.05,South,186,2.0,7.0,78,0.00,,,0.00,0,Wunderground v.1.15,2013-05-10 08:00:00,
2013-05-10 02:10:00,44.9,38.5,30.05,South,183,3.0,3.0,78,0.00,,,0.00,0,Wunderground v.1.15,2013-05-10 08:10:00,
2013-05-10 02:15:00,44.8,38.4,30.05,South,175,3.0,7.0,78,0.00,,,0.00,0,Wunderground v.1.15,2013-05-10 08:15:00,
2013-05-10 02:20:00,44.8,38.4,30.05,South,177,3.0,7.0,78,0.00,,,0.00,0,Wunderground v.1.15,2013-05-10 08:20:00,
2013-05-10 02:25:00,44.8,38.4,30.05,South,175,3.0,7.0,78,0.00,,,0.00,0,Wunderground v.1.15,2013-05-10 08:25:00,
2013-05-10 02:35:00,44.7,38.3,30.05,SSE,165,3.0,7.0,78,0.00,,,0.00,0,Wunderground v.1.15,2013-05-10 08:35:00,
2013-05-10 02:40:00,44.7,38.3,30.05,SSE,168,3.0,3.0,78,0.00,,,0.00,0,Wunderground v.1.15,2013-05-10 08:40:00,
2013-05-10 02:45:00,44.6,38.2,30.05,SSE,163,4.0,4.0,78,0.00,,,0.00,0,Wunderground v.1.15,2013-05-10 08:45:00,
2013-05-10 02:50:00,44.5,38.4,30.05,SSE,165,4.0,4.0,79,0.00,,,0.00,0,Wunderground v.1.15,2013-05-10 08:50:00,
2013-05-10 02:55:00,44.5,38.4,30.05,South,175,3.0,7.0,79,0.00,,,0.00,0,Wunderground v.1.15,2013-05-10 08:55:00,
2013-05-10 03:00:00,44.5,38.4,30.05,South,173,3.0,7.0,79,0.00,,,0.00,0,Wunderground v.1.15,2013-05-10 09:00:00,
2013-05-10 03:05:00,44.4,38.3,30.06,South,173,3.0,7.0,79,0.00,,,0.00,0,Wunderground v.1.15,2013-05-10 09:05:00,
2013-05-10 03:14:00,44.3,38.2,30.06,South,182,3.0,7.0,79,0.00,,,0.00,0,Wunderground v.1.15,2013-05-10 09:14:00,
2013-05-10 03:20:00,44.2,38.1,30.06,South,182,2.0,7.0,79,0.00,,,0.00,0,Wunderground v.1.15,2013-05-10 09:20:00,
2013-05-10 03:30:00,44.1,38.3,30.06,South,182,2.0,7.0,80,0.00,,,0.00,0,Wunderground v.1.15,2013-05-10 09:30:00,
2013-05-10 03:35:00,44.0,38.2,30.06,South,182,1.0,7.0,80,0.00,,,0.00,0,Wunderground v.1.15,2013-05-10 09:35:00,
2013-05-10 03:45:00,43.8,38.0,30.07,South,181,2.0,7.0,80,0.00,,,0.00,0,Wunderground v.1.15,2013-05-10 09:45:00,
2013-05-10 03:50:00,43.8,38.0,30.06,South,181,1.0,1.0,80,0.00,,,0.00,0,Wunderground v.1.15,2013-05-10 09:50:00,
2013-05-10 04:00:00,43.6,38.2,30.06,South,181,2.0,7.0,81,0.00,,,0.00,0,Wunderground v.1.15,2013-05-10 10:00:00,
2013-05-10 04:05:00,43.4,38.0,30.06,South,181,1.0,7.0,81,0.00,,,0.00,0,Wunderground v.1.15,2013-05-10 10:05:00,
2013-05-10 04:14:00,43.1,37.7,30.06,South,181,0.0,7.0,81,0.00,,,0.00,0,Wunderground v.1.15,2013-05-10 10:14:00,
2013-05-10 04:19:00,43.0,37.9,30.06,South,181,0.0,7.0,82,0.00,,,0.00,0,Wunderground v.1.15,2013-05-10 10:19:00,
2013-05-10 04:24:00,42.9,37.8,30.06,South,181,1.0,7.0,82,0.00,,,0.00,0,Wunderground v.1.15,2013-05-10 10:24:00,
2013-05-10 04:29:00,42.8,37.4,30.06,South,181,0.0,7.0,81,0.00,,,0.00,0,Wunderground v.1.15,2013-05-10 10:29:00,
2013-05-10 04:34:00,42.8,37.4,30.06,South,181,0.0,7.0,81,0.00,,,0.00,0,Wunderground v.1.15,2013-05-10 10:34:00,
2013-05-10 04:44:00,42.7,37.0,30.06,South,181,1.0,7.0,80,0.00,,,0.00,0,Wunderground v.1.15,2013-05-10 10:44:00,
2013-05-10 04:49:00,42.6,36.9,30.06,South,181,1.0,1.0,80,0.00,,,0.00,0,Wunderground v.1.15,2013-05-10 10:49:00,
2013-05-10 04:59:00,42.4,36.7,30.06,South,181,0.0,7.0,80,0.00,,,0.00,0,Wunderground v.1.15,2013-05-10 10:59:00,
2013-05-10 05:04:00,42.2,36.8,30.06,South,181,0.0,7.0,81,0.00,,,0.00,0,Wunderground v.1.15,2013-05-10 11:04:00,
2013-05-10 05:09:00,42.1,36.7,30.06,South,181,0.0,7.0,81,0.00,,,0.00,0,Wunderground v.1.15,2013-05-10 11:09:00,
2013-05-10 05:19:00,41.9,36.8,30.06,South,181,1.0,7.0,82,0.00,,,0.00,0,Wunderground v.1.15,2013-05-10 11:19:00,
2013-05-10 05:24:00,42.0,36.9,30.07,South,181,1.0,7.0,82,0.00,,,0.00,0,Wunderground v.1.15,2013-05-10 11:24:00,
2013-05-10 05:29:00,42.0,36.9,30.06,South,181,1.0,7.0,82,0.00,,,0.00,0,Wunderground v.1.15,2013-05-10 11:29:00,
2013-05-10 05:34:00,41.8,36.7,30.06,South,181,0.0,7.0,82,0.00,,,0.00,0,Wunderground v.1.15,2013-05-10 11:34:00,
2013-05-10 05:39:00,41.9,37.1,30.06,South,181,1.0,1.0,83,0.00,,,0.00,0,Wunderground v.1.15,2013-05-10 11:39:00,
2013-05-10 05:45:00,42.0,37.2,30.07,South,181,0.0,7.0,83,0.00,,,0.00,0,Wunderground v.1.15,2013-05-10 11:45:00,
2013-05-10 05:50:00,42.1,37.0,30.07,South,181,1.0,7.0,82,0.00,,,0.00,0,Wunderground v.1.15,2013-05-10 11:50:00,
2013-05-10 05:55:00,42.2,37.1,30.07,South,181,1.0,7.0,82,0.00,,,0.00,5,Wunderground v.1.15,2013-05-10 11:55:00,
2013-05-10 06:04:00,42.4,37.0,30.07,South,178,2.0,7.0,81,0.00,,,0.00,11,Wunderground v.1.15,2013-05-10 12:04:00,
2013-05-10 06:15:00,42.8,37.1,30.08,South,171,3.0,7.0,80,0.00,,,0.00,14,Wunderground v.1.15,2013-05-10 12:15:00,
2013-05-10 06:20:00,42.9,36.8,30.08,South,180,4.0,7.0,79,0.00,,,0.00,16,Wunderground v.1.15,2013-05-10 12:20:00,
2013-05-10 06:25:00,43.1,36.7,30.08,South,175,4.0,7.0,78,0.00,,,0.00,19,Wunderground v.1.15,2013-05-10 12:25:00,
2013-05-10 06:30:00,43.2,36.5,30.08,South,179,3.0,3.0,77,0.00,,,0.00,23,Wunderground v.1.15,2013-05-10 12:30:00,
2013-05-10 06:40:00,43.4,36.7,30.08,South,180,3.0,7.0,77,0.00,,,0.00,32,Wunderground v.1.15,2013-05-10 12:40:00,
2013-05-10 06:49:00,43.7,36.6,30.09,South,180,2.0,7.0,76,0.00,,,0.00,32,Wunderground v.1.15,2013-05-10 12:49:00,
2013-05-10 06:55:00,44.0,36.9,30.08,South,171,3.0,7.0,76,0.00,,,0.00,32,Wunderground v.1.15,2013-05-10 12:55:00,
2013-05-10 07:00:00,44.1,37.3,30.08,South,176,4.0,4.0,77,0.00,,,0.00,35,Wunderground v.1.15,2013-05-10 13:00:00,
2013-05-10 07:10:00,44.4,37.3,30.09,South,182,2.0,7.0,76,0.00,,,0.00,44,Wunderground v.1.15,2013-05-10 13:10:00,
2013-05-10 07:20:00,44.6,37.2,30.09,SSW,196,2.0,7.0,75,0.00,,,0.00,67,Wunderground v.1.15,2013-05-10 13:20:00,
2013-05-10 07:25:00,44.6,37.2,30.09,SSW,195,2.0,7.0,75,0.00,,,0.00,81,Wunderground v.1.15,2013-05-10 13:25:00,
2013-05-10 07:35:00,44.9,37.5,30.10,SSW,205,1.0,7.0,75,0.00,,,0.00,113,Wunderground v.1.15,2013-05-10 13:35:00,
2013-05-10 07:40:00,45.1,37.6,30.09,SSW,205,1.0,7.0,75,0.00,,,0.00,127,Wunderground v.1.15,2013-05-10 13:40:00,
2013-05-10 07:50:00,45.5,37.7,30.10,SSW,206,1.0,7.0,74,0.00,,,0.00,142,Wunderground v.1.15,2013-05-10 13:50:00,
2013-05-10 07:55:00,45.6,37.4,30.10,SSW,206,2.0,7.0,73,0.00,,,0.00,130,Wunderground v.1.15,2013-05-10 13:55:00,
2013-05-10 08:00:00,45.8,37.6,30.10,SSW,206,2.0,7.0,73,0.00,,,0.00,113,Wunderground v.1.15,2013-05-10 14:00:00,
2013-05-10 08:05:00,45.9,37.7,30.10,SSW,206,2.0,7.0,73,0.00,,,0.00,100,Wunderground v.1.15,2013-05-10 14:05:00,
2013-05-10 08:10:00,46.1,37.6,30.10,SSW,205,2.0,2.0,72,0.00,,,0.00,107,Wunderground v.1.15,2013-05-10 14:10:00,
2013-05-10 08:20:00,46.5,38.0,30.11,SSW,205,1.0,7.0,72,0.00,,,0.00,109,Wunderground v.1.15,2013-05-10 14:20:00,
2013-05-10 08:25:00,46.7,38.1,30.10,SSW,194,2.0,7.0,72,0.00,,,0.00,197,Wunderground v.1.15,2013-05-10 14:25:00,
2013-05-10 08:30:00,47.0,38.4,30.10,SSW,194,2.0,2.0,72,0.00,,,0.00,439,Wunderground v.1.15,2013-05-10 14:30:00,
2013-05-10 08:39:00,48.0,39.0,30.10,SSW,195,1.0,1.0,71,0.00,,,0.00,469,Wunderground v.1.15,2013-05-10 14:39:00,
2013-05-10 08:49:00,49.4,39.7,30.11,SSW,194,1.0,1.0,69,0.00,,,0.00,508,Wunderground v.1.15,2013-05-10 14:49:00,
2013-05-10 08:59:00,50.3,39.4,30.11,SSW,196,1.0,1.0,66,0.00,,,0.00,534,Wunderground v.1.15,2013-05-10 14:59:00,
2013-05-10 09:09:00,51.5,41.3,30.11,SW,219,1.0,1.0,68,0.00,,,0.00,555,Wunderground v.1.15,2013-05-10 15:09:00,
2013-05-10 09:14:00,52.1,41.5,30.11,SW,221,1.0,7.0,67,0.00,,,0.00,570,Wunderground v.1.15,2013-05-10 15:14:00,
2013-05-10 09:19:00,52.5,41.9,30.10,SW,221,1.0,7.0,67,0.00,,,0.00,587,Wunderground v.1.15,2013-05-10 15:19:00,
2013-05-10 09:29:00,54.0,44.1,30.10,SSW,207,1.0,1.0,69,0.00,,,0.00,613,Wunderground v.1.15,2013-05-10 15:29:00,
2013-05-10 09:34:00,54.2,42.7,30.10,SSW,207,1.0,4.0,65,0.00,,,0.00,626,Wunderground v.1.15,2013-05-10 15:34:00,
2013-05-10 09:39:00,54.1,41.8,30.10,SSW,192,1.0,1.0,63,0.00,,,0.00,642,Wunderground v.1.15,2013-05-10 15:39:00,
2013-05-10 09:44:00,54.7,42.8,30.10,SSW,196,1.0,7.0,64,0.00,,,0.00,656,Wunderground v.1.15,2013-05-10 15:44:00,
2013-05-10 09:49:00,55.5,43.1,30.10,SSW,202,1.0,7.0,63,0.00,,,0.00,670,Wunderground v.1.15,2013-05-10 15:49:00,
2013-05-10 10:00:00,56.4,43.5,30.10,West,276,1.0,1.0,62,0.00,,,0.00,700,Wunderground v.1.15,2013-05-10 16:00:00,
2013-05-10 10:10:00,57.5,41.4,30.10,West,275,1.0,7.0,55,0.00,,,0.00,719,Wunderground v.1.15,2013-05-10 16:10:00,
2013-05-10 10:20:00,57.9,43.7,30.10,West,277,0.0,7.0,59,0.00,,,0.00,742,Wunderground v.1.15,2013-05-10 16:20:00,
2013-05-10 10:30:00,59.4,43.7,30.10,West,277,0.0,7.0,56,0.00,,,0.00,773,Wunderground v.1.15,2013-05-10 16:30:00,
2013-05-10 10:35:00,60.3,43.1,30.10,NNW,333,0.0,7.0,53,0.00,,,0.00,775,Wunderground v.1.15,2013-05-10 16:35:00,
2013-05-10 10:40:00,60.4,43.2,30.10,NNE,30,2.0,7.0,53,0.00,,,0.00,788,Wunderground v.1.15,2013-05-10 16:40:00,
2013-05-10 10:45:00,60.8,42.5,30.10,NE,36,4.0,7.0,51,0.00,,,0.00,805,Wunderground v.1.15,2013-05-10 16:45:00,
2013-05-10 10:50:00,61.2,42.4,30.10,NNW,341,2.0,7.0,50,0.00,,,0.00,817,Wunderground v.1.15,2013-05-10 16:50:00,
2013-05-10 11:00:00,60.8,41.0,30.10,NE,46,3.0,7.0,48,0.00,,,0.00,833,Wunderground v.1.15,2013-05-10 17:00:00,
2013-05-10 11:05:00,60.8,41.0,30.10,East,82,3.0,7.0,48,0.00,,,0.00,837,Wunderground v.1.15,2013-05-10 17:05:00,
2013-05-10 11:10:00,60.6,41.8,30.10,East,82,2.0,2.0,50,0.00,,,0.00,844,Wunderground v.1.15,2013-05-10 17:10:00,
2013-05-10 11:15:00,61.3,43.0,30.10,East,85,1.0,7.0,51,0.00,,,0.00,868,Wunderground v.1.15,2013-05-10 17:15:00,
2013-05-10 11:25:00,62.3,42.9,30.10,NNE,13,2.0,7.0,49,0.00,,,0.00,874,Wunderground v.1.15,2013-05-10 17:25:00,
2013-05-10 11:35:00,61.6,42.2,30.09,North,355,4.0,12.0,49,0.00,,,0.00,884,Wunderground v.1.15,2013-05-10 17:35:00,
2013-05-10 11:45:00,62.4,41.9,30.09,North,5,3.0,7.0,47,0.00,,,0.00,893,Wunderground v.1.15,2013-05-10 17:45:00,
2013-05-10 11:50:00,63.3,44.3,30.09,North,9,2.0,7.0,50,0.00,,,0.00,921,Wunderground v.1.15,2013-05-10 17:50:00,
2013-05-10 11:55:00,63.3,41.6,30.09,NE,36,3.0,7.0,45,0.00,,,0.00,930,Wunderground v.1.15,2013-05-10 17:55:00,
2013-05-10 12:00:00,63.2,40.3,30.08,North,355,5.0,5.0,43,0.00,,,0.00,954,Wunderground v.1.15,2013-05-10 18:00:00,
2013-05-10 12:10:00,63.2,39.7,30.08,ESE,105,3.0,9.0,42,0.00,,,0.00,933,Wunderground v.1.15,2013-05-10 18:10:00,
2013-05-10 12:15:00,62.8,39.4,30.08,NNE,24,4.0,9.0,42,0.00,,,0.00,937,Wunderground v.1.15,2013-05-10 18:15:00,
2013-05-10 12:25:00,63.5,39.4,30.08,NE,53,4.0,13.0,41,0.00,,,0.00,981,Wunderground v.1.15,2013-05-10 18:25:00,
2013-05-10 12:35:00,63.2,38.5,30.09,NE,35,6.0,7.0,40,0.00,,,0.00,1007,Wunderground v.1.15,2013-05-10 18:35:00,
2013-05-10 12:40:00,63.4,38.6,30.08,North,355,5.0,5.0,40,0.00,,,0.00,1032,Wunderground v.1.15,2013-05-10 18:40:00,
2013-05-10 12:50:00,63.7,38.9,30.08,ENE,59,5.0,7.0,40,0.00,,,0.00,1083,Wunderground v.1.15,2013-05-10 18:50:00,
2013-05-10 12:55:00,63.0,38.9,30.08,North,9,7.0,7.0,41,0.00,,,0.00,223,Wunderground v.1.15,2013-05-10 18:55:00,
2013-05-10 13:00:00,62.8,39.4,30.08,NNE,19,7.0,7.0,42,0.00,,,0.00,197,Wunderground v.1.15,2013-05-10 19:00:00,
2013-05-10 13:10:00,62.6,39.8,30.08,NE,49,6.0,6.0,43,0.00,,,0.00,304,Wunderground v.1.15,2013-05-10 19:10:00,
2013-05-10 13:15:00,63.1,40.2,30.08,North,355,6.0,7.0,43,0.00,,,0.00,241,Wunderground v.1.15,2013-05-10 19:15:00,
2013-05-10 13:20:00,63.1,40.2,30.08,SW,223,6.0,8.0,43,0.00,,,0.00,216,Wunderground v.1.15,2013-05-10 19:20:00,
2013-05-10 13:25:00,63.1,40.2,30.08,NNW,336,7.0,8.0,43,0.00,,,0.00,1106,Wunderground v.1.15,2013-05-10 19:25:00,
2013-05-10 13:35:00,63.9,39.1,30.08,NNW,345,6.0,7.0,40,0.00,,,0.00,255,Wunderground v.1.15,2013-05-10 19:35:00,
2013-05-10 13:40:00,64.0,40.4,30.08,NNE,28,5.0,8.0,42,0.00,,,0.00,292,Wunderground v.1.15,2013-05-10 19:40:00,
2013-05-10 13:45:00,63.9,39.1,30.07,NNE,26,6.0,8.0,40,0.00,,,0.00,288,Wunderground v.1.15,2013-05-10 19:45:00,
2013-05-10 13:55:00,63.5,40.0,30.08,North,360,8.0,8.0,42,0.00,,,0.00,316,Wunderground v.1.15,2013-05-10 19:55:00,
2013-05-10 14:00:00,64.2,40.0,30.08,SSE,161,9.0,9.0,41,0.00,,,0.00,127,Wunderground v.1.15,2013-05-10 20:00:00,
2013-05-10 14:09:00,61.0,39.5,30.10,NNE,13,13.0,13.0,45,0.00,,,0.00,40,Wunderground v.1.15,2013-05-10 20:09:00,
2013-05-10 14:14:00,58.9,37.6,30.10,NNE,23,10.0,13.0,45,0.41,,,0.01,44,Wunderground v.1.15,2013-05-10 20:14:00,
2013-05-10 14:24:00,57.1,40.1,30.10,North,5,4.0,7.0,53,0.06,,,0.02,128,Wunderground v.1.15,2013-05-10 20:24:00,
2013-05-10 14:30:00,57.3,40.3,30.10,North,5,2.0,2.0,53,0.04,,,0.02,214,Wunderground v.1.15,2013-05-10 20:30:00,
2013-05-10 14:40:00,58.2,42.1,30.09,North,5,0.0,7.0,55,0.00,,,0.02,844,Wunderground v.1.15,2013-05-10 20:40:00,
2013-05-10 14:50:00,60.2,42.0,30.09,North,5,1.0,1.0,51,0.00,,,0.02,826,Wunderground v.1.15,2013-05-10 20:50:00,
2013-05-10 14:55:00,60.4,42.7,30.09,West,281,2.0,4.0,52,0.00,,,0.02,373,Wunderground v.1.15,2013-05-10 20:55:00,
2013-05-10 15:04:00,60.0,41.8,30.09,West,275,4.0,7.0,51,0.00,,,0.02,216,Wunderground v.1.15,2013-05-10 21:04:00,
2013-05-10 15:14:00,60.8,42.0,30.08,West,267,3.0,6.0,50,0.00,,,0.02,962,Wunderground v.1.15,2013-05-10 21:14:00,
2013-05-10 15:24:00,61.6,40.6,30.07,SSW,201,3.0,6.0,46,0.00,,,0.02,497,Wunderground v.1.15,2013-05-10 21:24:00,
2013-05-10 15:34:00,62.5,39.1,30.06,NNW,348,4.0,7.0,42,0.00,,,0.02,712,Wunderground v.1.15,2013-05-10 21:34:00,
2013-05-10 15:40:00,63.4,39.3,30.06,West,277,2.0,7.0,41,0.00,,,0.02,722,Wunderground v.1.15,2013-05-10 21:40:00,
2013-05-10 15:50:00,63.6,39.5,30.06,WNW,301,2.0,7.0,41,0.00,,,0.02,714,Wunderground v.1.15,2013-05-10 21:50:00,
2013-05-10 16:00:00,63.6,39.5,30.05,East,80,4.0,7.0,41,0.00,,,0.02,687,Wunderground v.1.15,2013-05-10 22:00:00,
2013-05-10 16:05:00,64.5,38.3,30.05,East,97,3.0,7.0,38,0.00,,,0.02,673,Wunderground v.1.15,2013-05-10 22:05:00,
2013-05-10 16:15:00,65.4,38.4,30.05,SW,215,2.0,4.0,37,0.00,,,0.02,656,Wunderground v.1.15,2013-05-10 22:15:00,
2013-05-10 16:20:00,65.7,40.1,30.05,North,360,2.0,2.0,39,0.00,,,0.02,640,Wunderground v.1.15,2013-05-10 22:20:00,
2013-05-10 16:29:00,65.9,36.0,30.04,WNW,284,2.0,2.0,33,0.00,,,0.02,613,Wunderground v.1.15,2013-05-10 22:29:00,
2013-05-10 16:35:00,66.2,39.1,30.04,NNW,346,1.0,7.0,37,0.00,,,0.02,598,Wunderground v.1.15,2013-05-10 22:35:00,
2013-05-10 16:40:00,66.8,36.8,30.03,North,11,1.0,1.0,33,0.00,,,0.02,582,Wunderground v.1.15,2013-05-10 22:40:00,
2013-05-10 16:45:00,67.1,37.0,30.03,WNW,284,1.0,4.0,33,0.00,,,0.02,503,Wunderground v.1.15,2013-05-10 22:45:00,
2013-05-10 16:50:00,66.6,36.6,30.03,South,170,2.0,7.0,33,0.00,,,0.02,547,Wunderground v.1.15,2013-05-10 22:50:00,
2013-05-10 16:55:00,66.8,36.0,30.03,North,5,3.0,7.0,32,0.00,,,0.02,531,Wunderground v.1.15,2013-05-10 22:55:00,
2013-05-10 17:00:00,67.5,35.8,30.03,NNW,327,3.0,3.0,31,0.00,,,0.02,515,Wunderground v.1.15,2013-05-10 23:00:00,
2013-05-10 17:05:00,67.6,35.9,30.03,NNW,342,1.0,5.0,31,0.00,,,0.02,494,Wunderground v.1.15,2013-05-10 23:05:00,
2013-05-10 17:15:00,67.9,35.3,30.03,NNW,341,3.0,3.0,30,0.00,,,0.02,466,Wunderground v.1.15,2013-05-10 23:15:00,
2013-05-10 17:25:00,67.8,36.8,30.03,NNW,328,2.0,7.0,32,0.00,,,0.02,431,Wunderground v.1.15,2013-05-10 23:25:00,
2013-05-10 17:30:00,68.4,36.6,30.03,NNE,13,1.0,7.0,31,0.00,,,0.02,415,Wunderground v.1.15,2013-05-10 23:30:00,
2013-05-10 17:39:00,68.4,35.7,30.03,NE,40,2.0,2.0,30,0.00,,,0.02,401,Wunderground v.1.15,2013-05-10 23:39:00,
2013-05-10 17:49:00,67.9,35.3,30.03,WNW,290,1.0,7.0,30,0.00,,,0.02,369,Wunderground v.1.15,2013-05-10 23:49:00,
2013-05-10 17:54:00,67.9,35.3,30.03,NE,51,3.0,7.0,30,0.00,,,0.02,383,Wunderground v.1.15,2013-05-10 23:54:00,
2013-05-10 17:59:00,67.4,34.0,30.03,NNE,32,4.0,4.0,29,0.00,,,0.02,130,Wunderground v.1.15,2013-05-10 23:59:00,
2013-05-10 18:09:00,66.8,34.3,30.03,North,5,3.0,3.0,30,0.00,,,0.02,111,Wunderground v.1.15,2013-05-11 00:09:00,
2013-05-10 18:15:00,66.5,34.9,30.03,North,355,3.0,7.0,31,0.00,,,0.02,100,Wunderground v.1.15,2013-05-11 00:15:00,
2013-05-10 18:24:00,66.0,36.1,30.03,NNW,336,3.0,7.0,33,0.00,,,0.02,102,Wunderground v.1.15,2013-05-11 00:24:00,
2013-05-10 18:30:00,66.1,35.4,30.03,North,360,3.0,11.0,32,0.00,,,0.02,81,Wunderground v.1.15,2013-05-11 00:30:00,
2013-05-10 18:40:00,65.6,34.9,30.03,North,5,7.0,9.0,32,0.00,,,0.02,81,Wunderground v.1.15,2013-05-11 00:40:00,
2013-05-10 18:50:00,65.0,34.4,30.04,North,360,7.0,9.0,32,0.00,,,0.02,44,Wunderground v.1.15,2013-05-11 00:50:00,
2013-05-10 18:55:00,64.6,34.1,30.04,NNW,346,8.0,9.0,32,0.00,,,0.02,35,Wunderground v.1.15,2013-05-11 00:55:00,
2013-05-10 19:00:00,64.1,35.9,30.04,NNE,26,9.0,9.0,35,0.00,,,0.02,46,Wunderground v.1.15,2013-05-11 01:00:00,
2013-05-10 19:05:00,63.2,37.2,30.04,NNW,348,9.0,9.0,38,0.00,,,0.02,65,Wunderground v.1.15,2013-05-11 01:05:00,
2013-05-10 19:10:00,62.1,37.5,30.05,SSE,160,8.0,8.0,40,0.00,,,0.02,77,Wunderground v.1.15,2013-05-11 01:10:00,
2013-05-10 19:20:00,62.2,37.6,30.05,NE,36,4.0,4.0,40,0.00,,,0.02,67,Wunderground v.1.15,2013-05-11 01:20:00,
2013-05-10 19:30:00,62.5,37.2,30.05,ENE,60,4.0,7.0,39,0.00,,,0.02,44,Wunderground v.1.15,2013-05-11 01:30:00,
2013-05-10 19:40:00,62.5,37.8,30.05,North,5,5.0,5.0,40,0.00,,,0.02,25,Wunderground v.1.15,2013-05-11 01:40:00,
2013-05-10 19:50:00,62.5,37.2,30.06,North,360,2.0,7.0,39,0.00,,,0.02,12,Wunderground v.1.15,2013-05-11 01:50:00,
2013-05-10 19:55:00,62.4,37.7,30.06,North,5,3.0,7.0,40,0.00,,,0.02,9,Wunderground v.1.15,2013-05-11 01:55:00,
2013-05-10 20:00:00,62.3,38.3,30.06,West,272,2.0,7.0,41,0.00,,,0.02,7,Wunderground v.1.15,2013-05-11 02:00:00,
2013-05-10 20:05:00,62.1,38.1,30.06,North,350,2.0,7.0,41,0.00,,,0.02,0,Wunderground v.1.15,2013-05-11 02:05:00,
2013-05-10 20:10:00,62.0,38.0,30.06,NNE,30,3.0,3.0,41,0.00,,,0.02,0,Wunderground v.1.15,2013-05-11 02:10:00,
2013-05-10 20:15:00,61.8,38.4,30.06,NNE,12,2.0,7.0,42,0.00,,,0.02,0,Wunderground v.1.15,2013-05-11 02:15:00,
2013-05-10 20:24:00,61.5,38.2,30.07,NNW,327,2.0,3.0,42,0.00,,,0.02,0,Wunderground v.1.15,2013-05-11 02:24:00,
2013-05-10 20:30:00,61.3,38.0,30.07,North,10,2.0,2.0,42,0.00,,,0.02,0,Wunderground v.1.15,2013-05-11 02:30:00,
2013-05-10 20:40:00,61.1,39.0,30.07,North,360,3.0,3.0,44,0.00,,,0.02,0,Wunderground v.1.15,2013-05-11 02:40:00,
2013-05-10 20:50:00,60.9,39.4,30.07,NNW,348,1.0,1.0,45,0.00,,,0.02,0,Wunderground v.1.15,2013-05-11 02:50:00,
2013-05-10 20:55:00,60.7,39.8,30.07,NNW,348,0.0,7.0,46,0.00,,,0.02,0,Wunderground v.1.15,2013-05-11 02:55:00,
2013-05-10 21:04:00,60.4,40.1,30.08,NNW,348,0.0,7.0,47,0.00,,,0.02,0,Wunderground v.1.15,2013-05-11 03:04:00,
2013-05-10 21:15:00,60.0,40.2,30.08,North,350,1.0,7.0,48,0.00,,,0.02,0,Wunderground v.1.15,2013-05-11 03:15:00,
2013-05-10 21:25:00,59.7,40.0,30.09,North,360,1.0,7.0,48,0.00,,,0.02,0,Wunderground v.1.15,2013-05-11 03:25:00,
2013-05-10 21:30:00,59.5,39.8,30.09,North,360,1.0,7.0,48,0.00,,,0.02,0,Wunderground v.1.15,2013-05-11 03:30:00,
2013-05-10 21:35:00,59.4,39.7,30.09,NNW,328,1.0,7.0,48,0.00,,,0.02,0,Wunderground v.1.15,2013-05-11 03:35:00,
2013-05-10 21:40:00,59.3,40.1,30.10,NNW,329,1.0,1.0,49,0.00,,,0.02,0,Wunderground v.1.15,2013-05-11 03:40:00,
2013-05-10 21:45:00,59.1,39.4,30.10,NNW,329,0.0,7.0,48,0.00,,,0.02,0,Wunderground v.1.15,2013-05-11 03:45:00,
2013-05-10 21:55:00,58.9,39.8,30.10,NNW,342,1.0,7.0,49,0.00,,,0.02,0,Wunderground v.1.15,2013-05-11 03:55:00,
2013-05-10 22:00:00,58.9,39.8,30.10,NNW,342,1.0,7.0,49,0.00,,,0.02,0,Wunderground v.1.15,2013-05-11 04:00:00,
2013-05-10 22:05:00,58.8,38.6,30.10,NNW,346,1.0,7.0,47,0.00,,,0.02,0,Wunderground v.1.15,2013-05-11 04:05:00,
2013-05-10 22:10:00,58.7,38.5,30.10,North,5,1.0,1.0,47,0.00,,,0.02,0,Wunderground v.1.15,2013-05-11 04:10:00,
2013-05-10 22:15:00,58.7,38.5,30.10,NNW,327,1.0,2.0,47,0.00,,,0.02,0,Wunderground v.1.15,2013-05-11 04:15:00,
2013-05-10 22:19:00,58.6,38.4,30.11,North,350,2.0,7.0,47,0.00,,,0.02,0,Wunderground v.1.15,2013-05-11 04:19:00,
2013-05-10 22:25:00,58.6,37.9,30.11,North,5,1.0,7.0,46,0.00,,,0.02,0,Wunderground v.1.15,2013-05-11 04:25:00,
2013-05-10 22:35:00,58.3,38.1,30.11,North,5,1.0,7.0,47,0.00,,,0.02,0,Wunderground v.1.15,2013-05-11 04:35:00,
2013-05-10 22:45:00,58.0,37.9,30.11,NNW,346,1.0,7.0,47,0.00,,,0.02,0,Wunderground v.1.15,2013-05-11 04:45:00,
2013-05-10 22:54:00,57.7,38.1,30.11,NNW,348,1.0,7.0,48,0.00,,,0.02,0,Wunderground v.1.15,2013-05-11 04:54:00,
2013-05-10 23:05:00,57.5,37.9,30.11,NNW,348,0.0,7.0,48,0.00,,,0.02,0,Wunderground v.1.15,2013-05-11 05:05:00,
2013-05-10 23:10:00,57.4,37.9,30.11,NNW,348,0.0,7.0,48,0.00,,,0.02,0,Wunderground v.1.15,2013-05-11 05:10:00,
2013-05-10 23:15:00,57.3,37.2,30.11,NNW,348,0.0,7.0,47,0.00,,,0.02,0,Wunderground v.1.15,2013-05-11 05:15:00,
2013-05-10 23:20:00,57.3,37.8,30.12,North,349,0.0,7.0,48,0.00,,,0.02,0,Wunderground v.1.15,2013-05-11 05:20:00,
2013-05-10 23:30:00,57.1,37.6,30.12,North,349,0.0,7.0,48,0.00,,,0.02,0,Wunderground v.1.15,2013-05-11 05:30:00,
2013-05-10 23:35:00,57.0,37.5,30.12,North,349,0.0,7.0,48,0.00,,,0.02,0,Wunderground v.1.15,2013-05-11 05:35:00,
2013-05-10 23:40:00,56.9,36.9,30.12,North,349,0.0,7.0,47,0.00,,,0.02,0,Wunderground v.1.15,2013-05-11 05:40:00,
2013-05-10 23:45:00,56.9,36.9,30.12,NNW,348,0.0,7.0,47,0.00,,,0.02,0,Wunderground v.1.15,2013-05-11 05:45:00,
2013-05-10 23:50:00,56.9,36.9,30.12,North,349,0.0,7.0,47,0.00,,,0.02,0,Wunderground v.1.15,2013-05-11 05:50:00,
2013-05-10 23:55:00,56.8,36.8,30.13,North,350,0.0,7.0,47,0.00,,,0.02,0,Wunderground v.1.15,2013-05-11 05:55:00,